Flag for U.S.A. Weather past 2 weeks in Dover, Delaware, U.S.A.

Now
45 °F

Overcast.


Feels Like: 39 °F
Forecast: 38 / 43 °F
Wind: 12 mph from Southwest

Location: Dover Air Force Base

Current Time: Mar 4, 2015 at 10:38:52 AM

Latest Report: Mar 4, 2015 at 10:02 AM


Visibility: 10 mi

Pressure: 29.94 "Hg

Humidity: 100%

Dew point: 45 °F

Location of DoverLocation

Historic Weather in Dover — Graph

°F

Dover temperature yesterday

Maximum temperature yesterday: 36 °F (at 11:58 PM)
Minimum temperature yesterday: 25 °F (at 3:58 AM)
Average temperature yesterday: 30 °F

Past Weeks' High & Low Weather Summary

 TemperatureHumidityPressure
High43 °F (Mar 4, 8:58 AM)100% (Feb 21, 4:03 PM)30.87 "Hg (Feb 21, 4:03 PM)
Low2 °F (Feb 20, 6:58 AM)35% (Feb 20, 2:58 AM)29.76 "Hg (Feb 18, 3:58 PM)
Average25 °F72%30.22 "Hg
* Reported Feb 17 8:58 AM — Mar 4 8:58 AM, Dover, Weather by CustomWeather, © 2015

Note: Actual official high and low records may vary slightly from our data, if they occured in-between our weather recording intervals... More about our weather records

Advertising

Dover weather history for previous 24 hours

 ConditionsComfort  
Time TempWeatherWind HumidityBarometerVisibility
8:58 AM
Wed, Mar 4
43 °FOvercast.7 mph100%29.93 "Hg10 mi
7:58 AM42 °FLight rain. Overcast.8 mph100%29.91 "Hg8 mi
6:58 AM41 °FMore clouds than sun.13 mph100%29.88 "Hg10 mi
6:04 AM41 °FLight rain. Mostly cloudy.12 mph100%29.84 "Hg10 mi
5:59 AM41 °FLight rain. Mostly cloudy.12 mph100%29.84 "Hg10 mi
4:58 AM40 °FLight rain. Overcast.10 mph100%29.84 "Hg8 mi
3:59 AM41 °FLight rain. Low clouds.7 mph100%29.85 "Hg8 mi
3:58 AM40 °FLow clouds.7 mph100%29.86 "Hg9 mi
2:58 AM41 °FLow clouds.14 mph100%29.81 "Hg9 mi
1:58 AM40 °FLow clouds.15 mph100%29.82 "Hg8 mi
12:58 AM39 °FLow clouds.20 mph100%29.84 "Hg8 mi
11:58 PM
Tue, Mar 3
36 °FLow clouds.22 mph100%29.88 "Hg7 mi
11:03 PM32 °FIce fog.15 mph100%29.93 "Hg5 mi
10:58 PM33 °FFog.14 mph100%29.94 "Hg5 mi
9:58 PM32 °FIce fog.5 mph100%29.98 "Hg5 mi
8:58 PM32 °FLight rain. Fog.2 mph100%30.01 "Hg6 mi
7:58 PM32 °FLight rain. Ice fog.2 mph100%30.06 "Hg4 mi
6:58 PM31 °FLight freezing rain. Ice fog.1 mph100%30.11 "Hg6 mi
5:58 PM31 °FLight freezing rain. Ice fog.2 mph100%30.14 "Hg6 mi
4:58 PM31 °FLight freezing rain. Ice fog.5 mph100%30.17 "Hg6 mi
3:58 PM30 °FLight freezing rain. Ice fog.8 mph100%30.21 "Hg6 mi
2:58 PM30 °FLight freezing rain. Overcast.8 mph96%30.27 "Hg9 mi
1:58 PM31 °FSleet. Overcast.10 mph77%30.29 "Hg10 mi
12:58 PM31 °FBroken clouds.10 mph68%30.36 "Hg10 mi
11:58 AM31 °FScattered clouds.10 mph60%30.40 "Hg10 mi
10:58 AM29 °FScattered clouds.8 mph57%30.44 "Hg10 mi
Weather by CustomWeather, © 2015

See weather overviewHow to use our weather pages